Theta_e
329 331 332 324 309 308 305 309 317 315 317 321 322 320 320 323 318 315 334 338 335 341 341 342 345 346 345 343 342 339 338 337 337 336 336 336 335 335 335 334 334 334 334 334 333 332 331 331 330
328 327 326 320 304 300 304 313 313 317 322 325 324 323 321 319 327 327 332 337 335 341 340 338 343 345 345 344 343 341 338 337 336 336 336 336 335 334 334 333 333 333 333 333 333 332 332 332 332
325 323 318 310 304 300 304 314 317 320 321 322 322 327 324 322 329 331 337 336 337 341 340 341 343 346 344 344 343 341 338 337 336 336 335 334 334 333 333 333 333 333 333 333 333 332 331 332 332
323 322 318 306 300 306 310 316 319 319 320 323 325 321 328 331 332 335 338 335 336 339 342 341 342 346 346 343 343 339 337 336 336 335 335 334 333 333 332 332 332 333 333 333 332 332 332 334 333
325 319 306 303 303 309 312 319 321 318 319 321 321 320 323 330 334 337 335 331 334 340 342 341 341 344 343 343 341 339 337 336 336 335 334 333 333 333 332 333 333 334 335 335 334 335 335 334 335
316 317 303 299 303 309 314 320 320 318 320 321 322 322 323 330 332 334 330 329 336 338 341 341 336 339 341 342 341 340 338 336 335 334 334 334 333 333 333 333 333 334 334 335 336 336 335 335 335
313 311 303 303 304 307 315 320 318 319 319 319 325 318 323 327 332 333 329 331 334 337 338 339 339 337 334 337 337 338 338 337 336 335 334 334 333 333 333 332 332 334 335 336 336 336 336 336 335
316 313 305 305 305 307 315 316 318 319 317 326 326 317 319 328 331 331 331 332 333 334 334 334 336 335 338 340 331 334 336 336 336 335 333 331 332 331 331 329 331 332 334 334 335 335 335 335 334
316 308 303 304 307 309 314 313 317 322 322 323 324 324 330 331 331 328 329 330 329 330 331 333 336 338 340 340 334 329 329 330 330 334 330 331 336 335 333 328 327 330 331 332 332 333 332 330 330
312 307 306 311 314 312 313 315 317 319 320 319 319 325 329 330 328 327 325 324 324 326 328 333 336 337 339 337 337 338 337 338 336 338 338 337 336 336 331 326 324 327 327 328 330 330 329 328 334
310 306 311 312 314 314 312 312 314 317 314 319 317 320 325 326 327 327 327 326 325 327 328 330 331 333 334 335 335 336 337 337 338 338 338 337 337 338 337 338 337 337 327 336 335 335 334 334 334
306 310 309 311 311 311 311 313 314 316 315 321 324 324 326 325 326 326 324 326 326 326 328 331 335 335 336 337 336 337 337 339 338 335 333 333 334 336 334 335 334 334 335 336 332 335 334 334 334
307 308 310 309 309 310 312 313 313 308 313 322 323 322 321 318 315 317 320 326 330 329 332 334 335 334 334 335 336 337 337 336 335 332 331 332 331 332 333 331 332 331 330 329 331 332 332 332 331
309 308 308 308 312 312 311 310 312 304 310 312 311 310 310 310 310 310 311 312 316 319 320 325 334 335 335 334 334 333 332 331 322 317 317 320 326 329 327 323 320 320 323 327 329 328 329 325 319
305 303 304 305 309 305 310 304 300 304 308 307 306 306 305 304 305 304 306 308 309 312 314 316 321 330 333 332 330 321 320 316 313 311 310 312 316 317 317 316 313 312 314 316 318 322 318 311 311
301 303 299 302 304 305 304 300 299 303 305 303 303 303 302 301 301 302 303 305 307 311 315 318 318 329 332 324 316 312 308 307 306 306 307 306 307 309 310 310 309 309 309 310 311 312 312 306 306
299 296 299 297 300 301 303 300 299 303 304 302 302 301 301 300 300 301 302 306 307 308 311 315 321 327 320 313 308 305 304 303 302 303 304 304 306 307 308 307 306 306 305 305 306 306 305 303 304
292 293 299 298 297 299 298 297 299 302 304 302 302 302 300 299 298 300 302 304 305 307 311 313 318 318 312 308 304 303 301 300 301 301 303 303 304 305 304 304 304 304 303 302 302 304 304 303 301
294 295 296 295 295 297 299 293 298 300 302 300 300 300 300 299 298 299 300 302 304 305 305 307 316 314 311 307 303 300 298 298 299 300 301 302 302 301 302 302 301 301 300 299 299 301 301 300 300
293 289 290 293 294 295 294 293 293 297 299 300 299 299 299 297 297 297 299 299 301 302 300 302 305 308 308 305 301 300 298 299 299 299 299 299 300 299 299 299 298 298 299 297 297 298 299 298 299
292 287 289 291 291 294 293 289 290 293 295 296 299 299 298 297 295 295 296 296 299 297 297 298 299 300 300 300 299 299 299 299 297 296 296 297 298 298 296 297 297 296 296 295 295 296 296 295 297
289 294 293 291 290 287 293 287 290 293 293 294 295 296 295 293 293 293 294 296 295 294 296 297 297 297 298 299 300 300 298 294 294 295 295 295 297 296 295 295 295 295 295 294 294 295 295 295 292
293 297 294 293 290 287 286 288 293 292 291 293 295 295 294 292 292 292 293 293 294 293 293 294 294 295 297 298 298 297 295 295 295 295 294 294 295 295 294 294 294 294 294 293 293 293 293 293 292
298 296 295 294 288 282 286 288 290 289 293 294 294 294 293 292 292 292 293 294 293 294 293 293 293 293 295 295 295 296 295 294 293 294 293 293 293 294 293 293 292 292 292 291 291 292 292 292 291
293 292 284 281 281 283 289 287 293 298 298 296 294 293 293 292 291 290 291 291 292 293 293 293 292 291 292 293 292 293 293 293 292 292 292 292 292 291 292 291 291 290 290 290 290 290 290 290 290
289 290 284 277 279 284 287 286 292 294 295 299 296 295 294 292 292 291 291 291 292 291 290 290 290 289 291 291 291 291 291 291 290 291 291 291 291 290 291 291 290 289 289 289 288 288 288 289 288
288 286 292 285 282 284 287 290 294 290 292 295 295 294 292 291 291 290 290 290 290 290 289 289 289 289 289 289 289 289 289 289 288 289 290 290 291 289 289 289 289 288 288 288 287 286 286 286 287
291 295 286 287 279 279 283 286 289 288 289 291 291 292 291 291 290 290 290 290 290 290 289 289 290 289 288 288 288 288 288 288 287 288 288 288 288 288 288 287 288 288 287 287 286 286 285 285 285
290 288 289 290 285 281 279 284 292 293 292 291 291 292 291 290 290 289 290 290 290 290 289 288 288 287 287 287 287 287 286 287 287 287 286 287 287 286 286 286 286 285 285 286 286 285 284 284 284
290 291 290 284 282 283 282 284 286 287 292 293 292 292 293 291 290 289 289 288 288 288 287 288 288 288 287 287 286 286 286 286 286 285 285 285 285 285 285 284 283 283 283 284 284 284 284 283 283
Wind_Speed
3 3 3 5 6 5 4 3 0 6 6 3 4 1 4 8 5 4 7 4 15 13 14 13 11 13 14 14 14 13 13 11 11 12 12 11 11 11 11 10 10 10 10 10 10 10 10 10 9
1 3 4 2 6 9 8 4 5 2 7 11 9 5 3 6 5 9 9 10 16 14 12 13 9 10 14 15 14 13 13 12 11 11 11 10 10 10 10 9 9 9 9 8 9 8 8 8 8
2 3 4 4 4 10 7 7 9 12 8 5 5 5 3 5 9 8 9 15 16 14 11 11 9 10 11 15 13 12 12 12 11 10 10 9 9 8 8 8 7 7 8 8 7 7 8 8 7
3 4 3 8 10 5 2 9 9 11 5 3 9 9 6 3 3 5 14 16 15 13 12 11 10 10 14 15 14 12 12 10 10 10 9 8 7 6 6 6 6 7 7 7 7 7 8 8 8
1 3 6 8 9 2 4 4 14 10 7 8 3 7 8 4 6 14 16 14 15 14 13 14 11 11 14 13 13 12 11 9 9 8 7 6 5 5 4 4 5 5 6 6 7 7 7 8 8
4 2 7 10 10 5 4 8 9 7 6 8 7 9 6 5 10 12 14 13 13 14 12 12 10 10 10 11 11 10 9 8 7 6 5 4 4 3 3 4 5 5 6 7 7 8 8 8 8
6 6 10 12 9 6 7 7 10 8 10 6 8 7 5 7 10 12 11 11 10 10 10 9 10 10 8 9 9 9 8 6 5 4 3 3 2 3 3 5 5 6 7 8 9 9 9 8 9
3 5 10 11 10 8 9 7 4 7 6 6 2 6 8 11 12 11 9 9 9 8 7 7 7 9 9 10 7 7 6 5 4 3 2 2 3 2 1 5 2 7 8 9 9 9 9 9 9
3 7 11 13 10 8 10 8 3 3 10 5 3 4 13 18 17 13 10 9 8 6 7 6 7 6 7 7 6 6 4 4 2 2 1 5 3 4 4 3 5 7 7 7 7 7 7 7 9
8 8 12 7 7 8 13 10 10 8 12 6 6 10 17 19 16 15 12 10 8 8 6 7 7 7 6 4 5 3 3 1 1 4 4 4 4 4 6 7 6 7 5 6 5 6 8 7 6
6 10 7 7 5 6 11 10 4 9 7 5 13 16 18 16 14 13 13 12 9 8 6 6 5 5 4 3 3 2 2 3 2 3 3 4 4 3 3 4 3 5 2 4 4 4 5 7 6
8 10 6 5 5 6 12 10 9 8 3 2 17 16 14 14 11 9 10 10 9 8 8 8 9 7 7 4 4 3 2 1 2 3 4 3 3 4 3 4 6 5 5 7 6 4 6 7 7
11 7 8 3 5 6 10 9 10 8 8 12 14 12 12 12 10 8 7 7 8 7 6 8 8 7 6 6 2 0 2 2 3 5 6 5 3 3 4 4 5 6 5 5 5 5 6 6 7
8 8 7 8 9 9 14 11 5 3 6 12 14 12 10 11 9 8 6 6 5 3 2 3 7 7 5 4 3 2 3 6 7 7 8 8 6 6 7 6 6 5 6 5 5 6 5 6 7
3 10 7 7 11 5 19 7 5 6 7 12 13 10 10 9 8 8 5 4 3 1 2 2 3 4 4 6 7 7 7 7 7 7 10 10 9 8 6 7 5 6 7 7 6 6 7 7 7
9 8 12 6 8 8 6 10 4 8 9 11 11 9 9 7 7 6 4 3 2 2 1 1 2 4 9 11 9 8 7 7 6 6 7 12 10 8 7 7 8 8 7 7 7 8 7 7 7
4 15 21 8 2 7 7 9 10 11 9 10 11 9 8 8 7 5 4 3 3 4 4 4 4 11 13 13 10 10 8 7 7 7 7 9 9 10 9 8 7 8 7 8 8 7 8 8 9
8 7 20 14 6 7 9 8 12 10 13 12 11 9 8 7 5 4 5 4 4 4 5 6 3 12 14 10 10 8 8 8 7 8 9 11 9 10 8 8 9 8 8 8 8 8 8 8 9
8 8 12 5 1 5 9 10 13 12 12 13 11 10 9 7 5 5 4 3 4 6 6 6 10 10 8 7 7 7 7 7 8 9 12 12 10 11 10 8 9 8 9 9 9 7 9 9 11
10 8 8 2 1 3 10 12 7 9 9 10 12 11 10 9 6 5 5 5 6 6 7 6 10 9 7 5 6 5 6 8 8 8 10 11 12 12 10 9 8 10 7 9 10 10 6 6 9
16 6 5 7 5 9 13 5 8 8 5 6 7 7 8 10 9 7 7 6 6 8 8 7 10 11 10 8 8 9 9 7 7 7 7 9 10 11 10 10 9 9 8 8 9 9 10 6 6
17 20 12 5 10 5 5 7 9 12 10 10 11 10 9 10 7 8 7 8 7 6 8 8 10 11 9 7 6 7 7 6 5 6 6 7 10 10 10 10 9 9 7 8 8 8 7 7 6
4 21 16 9 4 4 4 4 4 14 16 16 14 12 10 10 10 7 11 8 9 6 8 9 12 12 11 11 10 9 11 8 6 6 7 8 8 9 10 9 9 8 7 8 8 8 8 7 6
6 12 13 10 2 4 8 5 7 13 23 18 16 14 13 13 12 10 11 9 11 9 9 10 12 12 11 11 12 12 11 8 7 6 5 5 5 5 8 8 8 7 7 7 6 7 8 7 6
8 8 5 6 4 1 11 7 2 13 13 21 20 17 15 14 14 13 14 11 10 10 10 10 12 12 10 10 11 11 10 9 8 6 4 5 4 5 6 7 7 6 7 6 6 6 7 6 5
14 14 4 5 3 4 3 5 3 3 1 13 19 18 17 18 14 15 12 12 13 11 10 10 11 12 10 8 11 9 8 5 5 6 4 4 4 5 5 6 5 6 6 5 6 5 5 5 5
9 10 3 4 2 3 5 2 4 2 3 11 18 20 19 18 16 15 13 9 9 9 10 11 12 12 9 9 9 8 7 7 7 6 5 4 4 4 5 4 4 5 6 6 5 5 5 5 5
7 7 6 2 9 6 5 4 7 10 13 13 19 22 20 18 18 15 13 11 9 9 7 7 11 11 10 9 6 6 7 6 6 5 6 5 4 5 4 4 4 4 5 5 4 3 4 5 4
7 10 4 2 1 5 5 4 1 9 17 21 19 20 20 20 17 15 13 10 9 8 8 7 9 10 8 7 6 6 6 5 5 5 4 4 4 4 4 3 3 3 4 4 3 3 4 5 5
3 5 13 7 6 1 2 3 1 1 6 12 14 15 16 18 18 16 14 12 10 9 8 8 8 8 7 7 6 6 6 5 5 4 4 4 4 3 3 3 3 2 2 2 4 5 5 6 6
Wind_Direction
267 238 232 232 220 234 186 167 335 136 133 83 81 265 78 30 359 33 144 104 138 143 135 149 142 140 134 126 116 110 103 98 96 91 86 81 80 79 71 66 64 58 57 55 54 51 46 39 33
290 248 219 215 234 199 166 159 172 100 118 116 97 107 70 75 56 111 136 148 143 140 140 144 139 144 146 134 124 116 109 102 93 89 87 84 80 74 73 68 59 55 50 51 48 44 38 30 23
243 290 235 227 225 208 179 173 128 123 124 143 117 45 53 71 112 136 115 142 140 139 139 133 155 139 141 134 117 113 112 110 106 98 87 78 76 72 64 56 49 38 30 29 35 31 17 14 10
247 186 156 236 200 197 230 159 155 151 113 128 128 94 100 9 109 112 139 145 141 140 133 131 135 130 133 127 121 115 112 110 107 106 104 95 81 70 57 46 37 26 18 15 17 10 7 359 353
213 227 207 223 210 226 227 161 169 157 123 134 184 118 103 78 105 133 143 149 145 141 130 125 107 111 118 116 117 119 119 117 113 104 99 97 90 77 58 37 20 7 2 1 2 359 353 347 341
200 259 213 213 201 199 200 168 174 147 142 131 122 118 114 99 131 143 147 150 152 141 138 133 117 116 111 113 114 114 112 113 110 106 107 101 83 48 20 5 351 345 343 343 344 343 337 333 333
251 214 221 211 204 188 175 173 181 162 148 124 131 119 100 144 141 145 145 140 150 142 143 137 140 128 120 118 115 115 115 116 113 103 90 69 38 9 356 346 339 345 341 338 337 328 323 322 324
244 238 200 213 202 191 154 148 162 177 118 110 318 147 161 145 143 131 121 133 138 132 141 123 137 155 153 140 107 121 127 126 114 84 46 360 290 286 272 290 28 330 330 331 331 328 326 320 315
177 225 207 204 200 171 161 155 117 114 128 96 61 70 119 132 137 136 133 137 135 141 136 148 147 148 150 150 121 125 96 64 0 193 160 262 308 324 313 356 310 315 318 318 319 317 312 309 271
211 222 210 203 195 182 172 170 140 161 142 101 88 110 128 136 147 144 146 155 159 162 164 173 166 157 160 155 147 153 135 186 266 307 318 312 319 320 307 293 288 285 291 282 299 311 303 272 340
179 215 199 200 194 186 152 133 101 162 162 147 155 145 141 144 150 155 159 160 173 169 177 183 181 165 173 155 159 170 197 193 208 238 316 325 313 312 328 323 334 336 334 327 331 334 344 345 334
198 215 196 171 169 169 164 122 100 69 17 133 140 143 140 146 154 154 155 155 163 180 187 190 196 183 187 188 191 193 205 212 8 17 335 323 313 342 327 342 354 344 342 353 347 344 348 349 353
225 196 193 150 149 139 134 119 115 72 63 101 118 118 116 110 102 92 107 140 160 175 183 191 196 193 188 203 175 77 27 30 37 40 23 1 338 331 17 27 29 32 20 13 12 1 5 11 3
221 210 184 164 151 134 135 125 147 83 117 107 103 99 95 98 103 95 76 87 97 92 58 302 205 203 186 167 133 90 78 66 61 43 28 32 28 34 53 45 30 18 20 12 17 15 12 7 354
246 183 159 166 164 127 135 107 96 111 144 118 111 110 103 91 84 77 55 63 44 75 314 357 309 220 151 123 84 69 62 62 57 48 36 30 41 53 60 52 35 32 11 12 25 18 26 8 3
196 203 187 156 169 161 235 171 167 138 155 133 127 124 112 92 86 73 61 53 39 53 32 10 352 146 132 93 85 80 70 70 63 56 50 44 34 32 51 52 42 25 26 20 24 19 16 4 359
256 198 200 160 188 152 208 147 167 164 161 146 134 135 129 118 85 61 51 38 31 32 46 43 38 120 108 99 90 76 72 71 66 59 52 46 48 47 54 54 44 35 29 27 13 25 14 5 354
187 219 195 182 154 185 146 140 150 158 182 158 145 142 143 128 90 62 51 38 42 48 82 79 88 112 112 106 102 93 84 73 64 65 56 53 51 48 52 54 46 39 39 32 19 15 17 11 351
296 246 214 130 82 148 182 142 165 174 181 156 157 159 154 127 95 76 60 49 81 65 84 81 103 110 116 120 115 99 88 82 74 61 55 51 45 47 47 44 39 42 43 37 25 7 12 14 359
215 277 305 1 25 137 148 149 149 198 180 173 166 166 160 140 123 99 83 69 64 72 57 70 90 95 90 88 97 104 106 84 81 72 59 52 49 42 43 46 42 34 38 38 34 30 13 21 20
198 201 249 241 148 67 133 146 176 209 177 178 172 173 163 148 135 114 94 82 81 65 73 76 77 83 90 92 99 107 109 101 83 68 62 50 54 51 50 46 45 42 37 36 28 26 35 25 32
208 191 225 207 181 173 255 179 207 190 193 198 184 186 167 139 120 123 106 102 93 87 91 89 88 89 87 105 108 101 98 100 88 80 76 64 52 56 51 51 48 50 45 41 32 28 31 23 29
230 163 180 202 210 138 200 188 158 168 208 201 192 183 174 141 133 165 115 125 96 99 96 97 92 89 93 100 102 101 101 104 104 96 85 76 62 52 52 47 51 49 46 44 38 38 37 36 29
136 166 170 189 166 226 170 207 183 189 214 186 185 180 167 148 155 149 137 133 120 119 105 99 95 87 84 90 92 95 107 113 109 101 92 79 71 59 52 49 50 52 55 44 41 45 44 43 44
230 172 163 201 182 296 164 184 267 207 206 186 180 175 170 166 164 156 152 144 132 127 117 109 101 89 83 85 90 95 98 98 102 95 85 85 73 63 48 50 48 48 52 48 45 46 47 38 40
205 207 189 237 175 135 109 200 226 32 149 189 170 169 174 170 173 160 163 153 145 144 121 125 111 111 98 102 93 88 89 92 86 82 89 83 78 72 56 66 62 60 60 58 52 48 37 31 30
185 212 204 81 19 136 175 218 230 123 145 163 167 169 175 173 174 157 157 158 154 149 137 134 123 109 116 105 96 101 100 100 99 96 87 80 77 83 72 74 75 61 56 50 50 48 35 22 10
203 140 178 221 163 194 200 229 222 195 181 174 176 180 175 170 169 162 156 159 153 128 133 133 121 120 117 112 118 111 106 102 104 99 93 93 98 99 100 98 83 68 53 41 34 33 26 10 10
174 192 222 76 340 199 167 216 210 207 192 187 186 182 175 170 164 158 154 158 144 144 149 131 120 122 123 125 125 121 115 112 104 103 102 100 104 108 103 92 79 55 41 23 10 3 4 351 341
304 213 201 202 199 43 324 131 57 292 210 184 178 181 173 167 163 159 157 153 158 156 150 144 139 139 139 139 136 130 125 126 117 113 119 133 137 122 125 96 78 50 1 329 344 342 333 321 319